User: anonymous   Login
Location: UBC Liquid-Mirror Observatory
(49.2876°N, 122.5728°W)
Time: 12:06:39
(UTC-08:00)
Language:

Cosmos 1743 Rocket - Orbit

View from above orbital plane
View from above orbital plane
View from above satellite
View from above satellite

Ground track
Ground track

The orbit data is extracted from the following two-line orbital elements,

1 16720U 86034B   17018.14830559  .00000059  00000-0  42910-5 0  9994
2 16720  82.5529  21.3797 0018917 233.9664 172.1416 14.83270859657026
Epoch (UTC): 18 January 2017 03:33:33
Eccentricity: 0.0018917
inclination: 82.5529°
perigee height: 606 km
apogee height: 632 km
right ascension of ascending node: 21.3797°
argument of perigee: 233.9664°
revolutions per day: 14.83270859
mean anomaly at epoch: 172.1416°
orbit number at epoch: 65702

The dashed part of the orbit path shows where the satellite is in the earth's shadow,  

DLR